STARLINK-4765 (53937 NORAD) Tracking and Keplerian Element Data

This shows tracking and keplerian element data for the satellite.

Feedback or suggestion? Click here.




ElementValue
Catalog53937
NameSTARLINK-4765
Epoch Orbit945
Epoch Day325.25001157
Epoch Year2022
RAAN329.47
Inclination53.2137
Eccentricity0.0004207
Argument of Perigee2.2642
Mean Anonmoly114.5204
Mean Motion15.73207633
Decay Rate-0.00049921
L11 53937U 22119BD 22325.25001157 -.00049921 00000+0 -35303-3 0 9990
L22 53937 53.2137 329.4700 0004207 2.2642 114.5204 15.73207633 9456



Live tracking and technical data element details for STARLINK-4765 (NORAD 53937). STARLINK-4765 can be tracked NOW for your location showing map with azimuth and elevation plus other details from your city location.







IsCatalogInMostPopularTable: catalog: 53937, numindb: 4
Update: records affected: 1



GetName: 53937 STARLINK-4765

Hit Count: updated at: Fri, 09 Dec 2022 19:14:20 GMT